Regional Weather Roundup
Issued by NWS

Home | Current Version | Previous Version | Graphics & Text | Print | Product List | Glossary On
Versions: 1 2 3 4 5 6 7 8 9 10 11 12 13 14 15 16 17 18 19 20 21 22 23 24 25 26 27 28 29 30 31 32 33 34 35 36 37 38 39 40 41 42 43 44 45 46 47 48 49 50
000
ASUS43 KDTX 231710
RWRMI
MICHIGAN HOURLY REGIONAL WEATHER ROUNDUP
NATIONAL WEATHER SERVICE DETROIT/PONTIAC MI
100 PM EDT WED JUL 23 2014

NOTE: "FAIR" INDICATES FEW OR NO CLOUDS BELOW 12,000 FEET WITH NO
SIGNIFICANT WEATHER AND/OR OBSTRUCTION TO VISIBILITY.

MIZ047>049-052>055-059>063-066>070-074>076-081>083-231800-
SOUTHEAST LOWER MICHIGAN

CITY           SKY/WX    TMP DP  RH WIND       PRES   REMARKS
ADRIAN         CLOUDY    71  60  68 N10       30.07R
ALMA           PTSUNNY   70  54  56 N8        30.10S
ANN ARBOR      CLOUDY    71  57  61 N10       30.06R
BAD AXE        CLOUDY    64  54  70 N15G22    30.09R
CARO           CLOUDY    69  58  68 N7        30.07S
DETROIT CITY   CLOUDY    71  57  61 N12       30.04R
DETROIT        CLOUDY    73  59  61 N10       30.04R
FLINT          CLOUDY    69  55  60 N14       30.08R
GROSSE ILE     CLOUDY    73  61  64 N12       30.02R
HILLSDALE      PTSUNNY   71  61  70 N10G17    30.08R
HOWELL         CLOUDY    67  56  67 N8        30.08R

CITY           SKY/WX    TMP DP  RH WIND       PRES   REMARKS
JACKSON        CLOUDY    69  58  67 NW7       30.08R
LAMBERTVILLE   CLOUDY    70  61  73 N6        30.06R
LANSING        PTSUNNY   70  55  59 N12       30.09R
LAPEER         CLOUDY    66  54  64 N12       30.07S
MASON          PTSUNNY   69  57  65 N7        30.08S
MONROE         CLOUDY    72  61  68 NW9       30.03R
MT. CLEMENS    CLOUDY    68  57  67 N18       30.03R
PONTIAC        PTSUNNY   70  55  59 N14       30.05R
PORT HOPE        N/A     68  58  70 NW3       30.08R
PORT HURON     CLOUDY    64  57  77 N15G21    30.05R
TRI CITIES     CLOUDY    74  56  53 N15       30.08S
TROY           CLOUDY    69  57  66 N12G18    30.06R
SAGINAW HB     MOSUNNY   72  55  56 N10       30.08S
$$
MIZ043>046-050>051-056>058-064>065-071>073-077>080-231800-
SOUTHWEST LOWER MICHIGAN

CITY           SKY/WX    TMP DP  RH WIND       PRES   REMARKS
BATTLE CREEK   CLOUDY    73  56  54 N13       30.10R
BENTON HARBOR  CLOUDY    67  58  72 N13G21    30.13R
BIG RAPIDS     CLOUDY    68  53  59 NW12      30.13R
COLDWATER      CLOUDY    73  60  63 N9        30.09R
FREMONT        CLOUDY    69  55  62 N10       30.13S
HOLLAND        PTSUNNY   71  59  65 NW9       30.13S
GRAND RAPIDS   PTSUNNY   74  56  53 N9        30.11S
IONIA          PTSUNNY   70  56  61 NE14      30.09S
KALAMAZOO      CLOUDY    72  57  59 N13G18    30.10S
LUDINGTON      MOSUNNY   64  55  74 N15G21    30.17S
MARSHALL       CLOUDY    70  57  63 N6        30.09R
MOUNT PLEASANT CLOUDY    69  56  61 NW8       30.10S
MUSKEGON       PTSUNNY   72  55  55 N7        30.13F
SOUTH HAVEN    PTSUNNY   69  61  77 NW16G22   30.12S
$$
MIZ016>042-231800-
NORTHERN LOWER MICHIGAN

CITY           SKY/WX    TMP DP  RH WIND       PRES   REMARKS
ALPENA         CLOUDY    66  53  63 N15       30.11R
BEAVER ISLAND  MOSUNNY   63  53  69 NE7       30.17F
BELLAIRE       CLOUDY    62  53  72 N7        30.15R
CADILLAC       CLOUDY    60  54  80 NW9       30.15R
CHARLEVOIX     CLOUDY    63  54  74 N12G18    30.19R
FRANKFORT      CLOUDY    62  52  69 N9        30.18S
GAYLORD        CLOUDY    60  52  74 VRB6      30.15R
GRAYLING       CLOUDY    62  55  79 N8        30.15R
HARBOR SPRINGS CLOUDY    63  53  71 N6        30.15S
HOUGHTON LAKE  CLOUDY    65  53  65 N12       30.13R
MANISTEE       SUNNY     63  52  67 NW13G21   30.17S
OSCODA         CLOUDY    71  51  50 N14G20    30.08R
PELLSTON       CLOUDY    63  53  70 N10       30.15S
ROGERS CITY    PTSUNNY   64  57  78 N12G18    30.13S
TRAVERSE CITY  CLOUDY    61  51  70 N8        30.16R
$$
MIZ007>008-015-231800-
EASTERN UPPER MICHIGAN

CITY           SKY/WX    TMP DP  RH WIND       PRES   REMARKS
KINROSS        PTSUNNY   64  52  63 NW10G18   30.15R
MACKINAC ISLAN MOSUNNY   65  53  64 N10G18    30.13F
NEWBERRY       SUNNY     64  50  60 N14G22    30.17S
S. S. MARIE    MOSUNNY   68  46  45 NE14      30.13F
MUNISING         N/A     59  49  69 NE10      30.23S
$$
MIZ004>006-011>014-085-231800-
CENTRAL UPPER MICHIGAN

CITY           SKY/WX    TMP DP  RH WIND       PRES   REMARKS
MANISTIQUE     MOSUNNY   69  50  51 N14G22    30.17F
ESCANABA       MOSUNNY   66  46  48 N15       30.20S
MENOMINEE      SUNNY     70  48  46 N12G18    30.20R
SAWYER-GWINN   SUNNY     63  46  55 NE12G17   30.24S
$$
MIZ001>003-009>011-084-231800-
WESTERN UPPER MICHIGAN

CITY           SKY/WX    TMP DP  RH WIND       PRES   REMARKS
IRON MOUNTAIN  MOSUNNY   69  48  47 N14G20    30.22S
HOUGHTON       MOSUNNY   67  50  54 NW9       30.24S
COPPER HARBOR    N/A     59  52  77 N5        30.24S
$$

ABBREVIATIONS USED IN REMARKS
   TC - TEMPERATURE IN CELSIUS
  WCI - WIND CHILL INDEX
   HX - HEAT INDEX
  VSB - VISIBILITY



USA.gov is the U.S. government's official web portal to all federal, state and local government web resources and services.